Wind_Speed
5 4 3 4 4 4 5 6 8 9 5 4 1 4 9 8 13 19 19 20 15 14 17 15 9 6 8 3 6 6 4 15 21 20 14 22 17 20 20 19 11 10 11 11 10
6 6 4 4 5 5 5 6 7 8 7 5 3 5 8 8 11 15 19 21 18 13 13 11 9 7 6 13 7 7 5 14 8 11 16 23 18 25 24 17 14 13 13 12 9
7 6 6 5 7 7 6 7 8 8 6 6 4 6 5 8 11 12 16 18 23 18 8 11 15 7 9 11 8 5 9 13 13 12 16 23 21 19 16 12 10 9 9 8 5
8 7 7 7 8 8 7 8 9 9 7 8 5 4 4 6 7 9 15 18 22 11 6 16 8 7 10 11 9 7 10 9 16 19 25 24 24 17 12 10 10 9 7 5 4
9 8 8 8 9 9 9 9 8 9 8 7 7 5 3 1 9 12 17 15 15 10 9 14 5 4 4 12 13 1 16 18 18 22 21 20 15 8 10 11 10 7 6 4 2
10 9 9 9 9 10 11 11 9 9 8 8 7 6 5 3 7 13 14 14 16 10 11 10 4 9 9 8 7 16 20 18 15 17 16 7 10 11 11 12 10 9 7 4 3
10 10 10 10 9 11 12 12 11 10 8 7 6 5 6 5 6 13 14 9 15 12 9 3 6 7 11 9 13 18 19 16 9 8 8 2 6 9 12 12 10 7 4 4 2
8 9 11 10 10 11 14 13 12 11 9 7 6 4 5 4 7 10 17 10 8 7 3 1 3 8 9 18 19 16 14 17 12 9 3 2 4 5 6 5 6 4 5 4 1
10 8 11 12 10 11 15 15 14 12 10 8 7 5 5 7 9 13 15 14 11 10 2 2 3 4 18 23 23 6 14 8 12 11 4 2 3 3 6 7 6 5 7 3 2
16 12 12 13 11 12 14 16 15 13 11 9 8 6 7 8 11 14 16 13 11 10 7 5 2 14 22 15 11 9 8 9 7 10 8 8 5 5 6 7 7 8 7 5 2
20 15 13 14 13 11 12 15 14 14 13 10 5 6 4 8 13 14 16 17 14 12 8 8 10 20 13 4 4 13 12 8 8 5 8 9 10 7 10 12 11 9 8 6 3
21 17 13 13 14 10 11 14 15 14 13 12 9 6 6 7 11 14 15 18 16 14 10 12 11 11 8 8 14 4 13 13 8 4 9 11 10 9 14 13 11 12 9 6 2
26 19 13 11 12 12 12 15 14 14 10 12 9 7 7 7 11 16 18 18 16 14 14 15 13 12 10 7 3 11 10 10 3 4 11 8 12 17 14 15 13 13 10 5 4
24 22 16 12 12 14 13 16 15 13 6 10 11 9 9 8 11 15 16 17 16 12 11 13 12 13 15 9 5 9 15 7 5 3 7 13 6 9 14 18 20 16 12 7 6
35 24 23 17 13 14 14 18 15 12 1 9 13 11 11 13 11 13 17 17 17 15 16 10 13 11 14 13 13 8 11 6 6 7 10 14 10 9 7 19 20 19 16 10 8
25 28 25 21 15 15 16 18 16 9 6 11 12 14 15 15 13 14 16 17 18 13 16 14 11 11 14 14 15 9 10 9 7 8 8 19 16 13 14 6 10 12 15 12 11
33 28 25 23 19 16 18 20 16 8 8 12 14 14 16 17 14 13 14 18 15 14 17 17 11 15 14 18 16 14 10 1 2 2 8 4 9 26 10 10 14 13 13 11 12
38 31 33 25 22 19 21 25 9 15 16 10 13 15 15 14 13 11 13 17 19 11 14 16 8 15 15 18 17 15 12 6 5 3 5 7 8 9 12 12 14 14 14 16 17
45 30 34 30 25 23 26 30 18 14 24 14 16 19 14 13 12 12 13 14 18 16 9 10 11 13 15 16 13 12 14 15 5 9 5 7 13 19 18 15 15 16 18 20 20
43 37 34 31 33 29 31 34 24 15 18 19 17 17 16 17 9 12 11 8 17 19 14 7 4 11 16 14 16 13 16 9 9 2 4 6 9 16 13 18 19 19 21 22 24
50 43 38 39 41 36 40 38 27 18 16 23 20 14 15 17 11 14 9 6 17 19 17 12 10 6 13 14 17 20 20 14 9 6 5 2 6 9 8 8 13 16 16 16 21
52 46 40 45 41 42 40 36 29 30 21 20 23 23 17 16 14 13 12 12 14 17 16 15 7 12 12 12 12 20 24 23 15 7 9 5 15 17 17 13 14 16 15 15 15
49 43 37 37 47 44 38 38 29 28 27 23 18 20 20 19 14 17 19 15 12 15 12 15 10 7 6 15 19 19 24 26 27 23 18 7 9 6 9 10 14 16 19 21 17
51 36 32 43 47 41 44 41 36 28 24 29 26 20 19 21 23 18 18 16 15 14 13 12 13 16 11 4 6 8 14 23 27 22 29 29 31 23 19 20 27 24 25 23 24
48 32 37 33 48 40 40 40 42 27 23 21 25 23 22 22 25 17 16 16 15 17 14 11 13 15 19 23 22 20 20 19 20 22 34 31 35 29 30 22 16 17 19 21 25
53 44 47 37 35 41 45 42 42 39 29 30 26 23 19 22 22 23 23 24 23 22 17 13 12 15 20 22 24 26 26 26 28 30 34 34 38 31 33 30 33 34 34 27 24
57 53 36 40 34 42 43 48 44 43 31 27 23 19 21 19 19 17 16 14 16 16 18 17 15 16 17 20 18 16 22 21 24 25 25 29 26 21 23 22 17 18 22 26 26
Wind_Direction
268 264 251 249 238 207 179 162 152 152 147 124 160 148 130 118 96 97 101 97 98 118 140 150 137 71 45 175 170 197 271 167 175 168 159 162 164 155 159 147 154 152 154 153 152
261 264 248 226 224 213 203 176 160 157 151 133 177 168 136 140 111 107 106 103 109 127 149 168 161 104 44 157 117 178 192 173 180 151 149 142 140 148 144 156 160 143 153 161 168
254 254 260 225 220 215 203 188 177 163 154 137 169 182 162 129 129 102 120 115 116 116 130 166 148 81 91 168 183 209 169 145 132 148 147 139 145 146 159 146 145 136 147 152 131
254 246 252 246 214 217 200 197 191 179 165 154 147 156 153 108 139 112 127 127 132 122 100 137 97 115 133 157 169 157 123 116 120 140 137 135 150 154 151 163 154 150 149 150 149
253 248 247 243 232 209 202 202 200 194 180 177 191 194 178 290 144 137 129 126 146 140 103 133 146 203 186 155 176 98 136 138 129 139 138 140 148 171 164 179 167 169 175 185 220
254 245 248 241 231 220 203 197 202 202 192 182 202 218 242 243 153 163 139 140 155 155 131 140 188 166 163 173 185 154 143 137 132 129 134 148 169 173 176 187 192 189 205 221 228
253 247 244 243 232 220 213 197 197 203 199 186 190 213 242 223 187 176 164 154 149 164 148 107 115 136 133 138 121 135 133 116 108 129 125 191 213 197 197 196 210 207 210 244 248
244 249 248 248 241 222 211 205 197 199 199 195 200 213 266 210 204 193 188 162 158 159 145 115 320 116 147 141 139 136 134 136 148 147 174 46 172 175 207 211 227 228 272 281 153
248 261 254 246 246 231 213 204 201 202 201 205 216 225 249 209 197 192 183 182 184 179 178 70 128 124 145 137 134 135 159 155 159 164 199 222 344 301 278 259 263 279 273 251 215
245 260 259 250 244 234 217 203 199 203 202 205 224 230 234 205 183 185 179 185 182 182 197 160 195 148 148 121 135 152 173 192 196 187 205 231 250 266 322 300 273 265 266 259 275
243 249 256 244 242 239 217 210 198 201 204 202 202 221 207 214 191 184 180 178 165 133 157 118 172 151 132 72 3 302 258 244 184 219 230 241 260 293 295 299 289 274 268 277 298
236 242 247 243 238 235 218 209 210 203 203 207 209 212 201 197 205 186 182 177 165 144 140 147 135 150 224 281 301 290 202 195 169 198 203 232 261 265 276 289 291 271 265 271 289
227 236 238 234 230 226 213 205 205 205 204 213 214 225 204 188 200 191 180 186 169 177 167 186 176 175 205 217 251 181 194 199 188 206 225 255 268 250 253 265 269 267 255 273 287
229 231 226 226 231 219 210 203 199 208 232 211 203 210 204 189 188 202 190 192 175 179 183 191 188 193 201 218 223 154 203 204 253 258 218 234 275 274 276 261 255 262 266 278 293
222 223 222 223 227 220 213 208 198 191 270 205 204 189 199 192 191 194 195 195 189 193 196 189 207 207 210 218 227 185 168 190 257 290 273 259 254 259 265 259 259 255 266 285 289
216 214 218 217 219 214 204 202 190 191 242 192 187 191 189 201 196 196 200 203 205 199 202 215 218 214 211 210 220 219 209 228 245 268 267 269 245 271 261 286 265 250 253 276 278
219 225 216 213 216 208 202 191 183 206 193 202 195 186 187 203 200 201 210 207 205 197 208 212 215 213 210 210 218 233 232 11 319 286 235 309 277 250 270 258 282 254 254 276 280
223 220 212 209 218 203 200 188 202 206 196 195 186 178 189 192 210 210 210 210 211 210 209 215 201 217 220 222 228 241 234 197 209 220 289 291 246 260 275 272 250 250 258 262 258
216 220 209 206 209 205 198 194 206 201 204 199 174 170 177 189 211 210 213 213 210 202 192 203 218 218 220 228 227 211 209 220 227 269 268 247 259 276 280 273 262 261 262 266 269
208 214 225 219 208 203 203 206 205 194 197 205 186 186 186 194 192 197 206 227 195 201 199 213 210 212 215 224 224 217 212 205 200 207 255 266 264 251 272 271 258 249 253 248 246
212 218 217 205 203 199 207 209 205 193 202 206 204 193 201 206 234 205 197 198 198 206 209 220 218 231 224 226 235 225 221 219 215 221 200 272 261 265 270 261 283 272 275 261 240
215 222 215 215 217 200 202 204 200 205 201 207 217 215 215 197 229 185 184 196 205 212 218 227 243 241 244 241 237 232 236 237 229 228 223 252 266 270 266 270 271 278 287 286 246
212 223 223 221 214 201 199 206 200 203 206 210 215 219 218 214 203 200 198 196 205 223 228 233 234 227 251 251 246 239 236 236 239 244 243 218 260 283 251 250 259 266 279 273 261
204 209 226 217 218 216 194 205 197 200 215 220 226 226 218 219 219 204 200 211 213 221 234 248 242 233 230 253 270 243 258 252 242 245 250 250 259 270 268 270 292 279 270 258 253
199 206 211 214 214 215 194 207 199 198 203 209 216 219 216 216 215 215 219 221 228 252 246 244 250 253 255 260 266 270 268 270 261 265 251 275 271 281 282 283 273 282 281 262 254
206 207 219 214 215 216 200 200 204 200 209 210 217 213 212 219 225 233 243 247 260 258 232 255 253 264 266 263 267 272 273 269 269 266 266 274 277 284 288 282 260 264 278 275 262
205 212 216 224 216 213 209 203 208 200 209 223 223 219 224 220 228 238 247 242 247 246 258 273 275 262 260 266 276 269 280 280 279 276 280 278 294 288 283 288 277 247 260 268 267
Height
3186 3185 3185 3185 3186 3187 3187 3187 3188 3186 3188 3188 3189 3189 3189 3191 3190 3188 3188 3189 3189 3190 3191 3192 3192 3191 3190 3190 3190 3191 3193 3192 3193 3197 3201 3205 3207 3209 3212 3214 3217 3217 3218 3218 3217
3186 3185 3184 3184 3185 3186 3187 3187 3188 3188 3187 3187 3189 3189 3190 3191 3192 3191 3191 3190 3191 3193 3193 3193 3192 3191 3189 3189 3191 3192 3195 3196 3199 3203 3204 3206 3209 3211 3213 3216 3216 3216 3217 3217 3217
3185 3184 3184 3183 3184 3185 3185 3186 3188 3188 3188 3188 3189 3190 3190 3192 3193 3193 3191 3191 3192 3193 3191 3193 3194 3193 3192 3193 3194 3196 3197 3199 3202 3205 3207 3207 3210 3215 3217 3216 3218 3218 3218 3218 3218
3184 3183 3183 3183 3182 3184 3184 3185 3187 3188 3189 3189 3191 3191 3191 3193 3196 3195 3194 3193 3192 3193 3192 3195 3195 3196 3196 3197 3199 3200 3201 3204 3204 3208 3209 3211 3213 3215 3217 3219 3219 3219 3219 3219 3218
3182 3181 3181 3182 3182 3182 3183 3185 3185 3187 3188 3189 3192 3192 3192 3193 3194 3195 3195 3194 3193 3193 3195 3198 3198 3199 3199 3199 3200 3202 3204 3207 3209 3211 3213 3215 3218 3219 3218 3219 3219 3220 3220 3220 3221
3180 3179 3180 3180 3181 3182 3183 3183 3184 3186 3188 3188 3191 3192 3193 3193 3194 3196 3196 3194 3195 3196 3196 3196 3198 3197 3198 3200 3202 3203 3205 3209 3212 3214 3217 3220 3220 3220 3219 3220 3220 3220 3221 3221 3223
3177 3177 3178 3179 3179 3181 3182 3182 3183 3185 3187 3188 3190 3191 3192 3194 3193 3196 3197 3196 3196 3198 3198 3198 3199 3200 3199 3201 3204 3206 3206 3211 3216 3217 3220 3221 3222 3220 3221 3222 3222 3220 3220 3222 3221
3175 3175 3176 3177 3178 3179 3180 3181 3181 3183 3185 3187 3189 3190 3192 3192 3193 3195 3196 3198 3198 3199 3199 3199 3200 3200 3200 3201 3206 3208 3211 3210 3215 3218 3219 3220 3221 3221 3222 3220 3220 3219 3219 3219 3219
3174 3173 3174 3175 3176 3177 3178 3179 3180 3182 3184 3185 3188 3189 3191 3191 3193 3194 3195 3197 3198 3200 3201 3201 3202 3202 3203 3202 3207 3210 3211 3213 3215 3215 3216 3218 3219 3219 3219 3218 3217 3217 3218 3218 3218
3171 3172 3173 3173 3174 3174 3175 3177 3179 3182 3182 3184 3186 3190 3190 3190 3191 3192 3194 3196 3198 3200 3201 3201 3202 3203 3206 3207 3208 3210 3212 3213 3213 3214 3214 3214 3215 3217 3216 3216 3216 3216 3216 3216 3216
3168 3170 3170 3170 3171 3171 3175 3178 3181 3182 3180 3182 3184 3185 3186 3188 3190 3191 3193 3196 3198 3199 3201 3200 3201 3203 3207 3208 3209 3209 3210 3212 3213 3214 3214 3213 3213 3214 3214 3214 3214 3214 3214 3213 3213
3165 3167 3167 3168 3168 3171 3173 3175 3177 3179 3179 3180 3181 3183 3184 3186 3189 3191 3194 3196 3198 3199 3201 3203 3203 3206 3207 3208 3208 3208 3209 3212 3213 3213 3214 3214 3213 3212 3211 3211 3210 3211 3211 3211 3211
3160 3164 3164 3165 3166 3170 3171 3173 3175 3177 3178 3179 3179 3181 3183 3185 3187 3190 3192 3194 3195 3198 3200 3202 3204 3204 3207 3209 3208 3209 3210 3211 3212 3212 3214 3212 3211 3208 3208 3207 3208 3208 3209 3208 3208
3155 3159 3161 3163 3167 3168 3167 3170 3173 3176 3178 3177 3177 3179 3181 3182 3185 3188 3190 3194 3194 3196 3199 3201 3202 3203 3204 3206 3208 3209 3211 3212 3212 3212 3212 3211 3208 3204 3205 3204 3204 3205 3205 3205 3205
3150 3155 3158 3161 3164 3165 3166 3170 3171 3175 3176 3176 3174 3175 3178 3181 3183 3185 3188 3190 3192 3194 3198 3199 3200 3201 3201 3203 3206 3207 3209 3210 3210 3210 3210 3209 3209 3200 3200 3199 3198 3200 3202 3202 3202
3144 3149 3154 3158 3160 3162 3163 3167 3170 3175 3171 3171 3170 3171 3175 3178 3180 3182 3186 3189 3192 3193 3195 3197 3198 3200 3200 3200 3203 3205 3207 3207 3207 3208 3205 3203 3205 3194 3193 3194 3195 3196 3197 3199 3199
3138 3143 3149 3154 3157 3158 3160 3165 3170 3168 3170 3170 3168 3169 3172 3177 3178 3180 3183 3186 3189 3190 3193 3194 3196 3198 3198 3199 3201 3203 3204 3206 3208 3208 3203 3200 3199 3191 3192 3191 3192 3192 3194 3195 3195
3132 3136 3143 3149 3152 3153 3157 3162 3164 3161 3164 3164 3166 3168 3172 3173 3177 3179 3180 3184 3185 3187 3188 3191 3195 3195 3197 3197 3200 3201 3203 3204 3206 3207 3200 3197 3192 3188 3188 3189 3189 3190 3191 3190 3190
3124 3128 3135 3144 3145 3149 3153 3156 3156 3157 3161 3162 3165 3167 3169 3169 3173 3176 3179 3181 3181 3185 3188 3187 3189 3190 3192 3194 3199 3198 3199 3201 3202 3202 3199 3193 3189 3186 3184 3185 3186 3187 3186 3186 3185
3115 3121 3130 3135 3139 3143 3147 3149 3151 3154 3156 3159 3161 3163 3165 3168 3170 3173 3176 3179 3179 3183 3185 3185 3187 3188 3189 3192 3195 3196 3198 3199 3200 3201 3198 3187 3185 3182 3182 3180 3181 3183 3184 3184 3185
3108 3114 3120 3129 3131 3135 3135 3143 3148 3151 3155 3156 3159 3160 3163 3164 3168 3170 3175 3177 3177 3180 3183 3184 3186 3188 3189 3188 3191 3193 3193 3194 3195 3194 3192 3192 3182 3180 3181 3181 3180 3181 3180 3180 3181
3099 3106 3113 3117 3121 3123 3128 3138 3145 3147 3151 3153 3156 3159 3162 3163 3165 3168 3172 3173 3175 3179 3181 3183 3183 3184 3187 3186 3187 3188 3189 3190 3190 3190 3188 3186 3180 3179 3179 3179 3179 3178 3178 3179 3179
3092 3099 3101 3106 3109 3115 3127 3135 3141 3144 3147 3151 3153 3156 3159 3162 3165 3167 3169 3171 3174 3176 3177 3179 3180 3182 3182 3184 3184 3183 3184 3185 3185 3186 3185 3184 3180 3178 3176 3177 3177 3177 3176 3175 3176
3088 3093 3093 3098 3102 3111 3122 3129 3137 3140 3144 3147 3150 3153 3156 3159 3161 3163 3166 3169 3171 3173 3174 3176 3177 3177 3177 3178 3180 3180 3181 3182 3183 3182 3177 3176 3175 3178 3176 3174 3173 3172 3172 3171 3172
3078 3081 3082 3087 3095 3104 3115 3124 3131 3135 3139 3143 3145 3149 3152 3155 3158 3161 3163 3165 3167 3170 3171 3172 3172 3173 3173 3175 3175 3176 3177 3178 3175 3175 3172 3171 3170 3172 3170 3171 3169 3167 3166 3167 3167
3067 3077 3078 3085 3093 3100 3107 3114 3123 3131 3134 3137 3141 3146 3150 3152 3156 3158 3161 3163 3165 3166 3167 3168 3168 3170 3170 3172 3171 3170 3172 3171 3169 3168 3163 3164 3163 3167 3165 3165 3165 3163 3162 3161 3162
3061 3069 3076 3084 3089 3094 3099 3108 3115 3127 3131 3136 3141 3144 3146 3151 3152 3156 3157 3159 3161 3162 3164 3165 3165 3167 3165 3167 3166 3165 3164 3163 3161 3161 3159 3158 3158 3158 3156 3156 3154 3156 3158 3158 3159